Location: Arrodets-la-Barthe
(43.0306°N, 0.2829°E)
Time: 19:17:13
(UTC+00:00)

Cosmos 2322 - Pass Details

Date: 24 October 2021
Orbit: 841 x 854 km, 71.0° (Epoch: 02 December)

Event Time Altitude Azimuth Distance (km) Brightness Sun altitude
Rises 18:42:01 0° 178° (S) 3,405 6.8 -18.9°
Reaches altitude 10° 18:44:37 10° 170° (S) 2,474 6.0 -19.4°
Enters shadow 18:49:24 36° 114° (ESE) 1,317 4.2 -20.3°
